Location: G�ppingen
(48.7000°N, 9.6670°E)
Time: 15:42:33
(UTC+02:00)

Envisat - Visible Passes

Search period start: 23 April 2018 00:00
Search period end: 03 May 2018 00:00
Orbit: 764 x 766 km, 98.2° (Epoch: 23 April)

Date Brightness Start Highest point End Pass type
(mag) Time Alt. Az. Time Alt. Az. Time Alt. Az.
23 Apr 4.9 21:33:44 10° SSW 21:38:06 29° W 21:42:30 10° NW visible
24 Apr 3.7 20:56:09 10° S 21:01:09 58° W 21:06:11 10° NNW visible
25 Apr 5.6 22:00:35 10° SW 22:03:57 18° W 22:07:20 10° NW visible
26 Apr 4.6 21:22:14 10° SSW 21:26:52 35° W 21:31:32 10° NNW visible
27 Apr 6.1 22:29:21 10° W 22:29:55 10° W 22:30:29 10° WNW visible
28 Apr 5.4 21:48:48 10° SW 21:52:41 22° W 21:56:34 10° NW visible
29 Apr 4.2 21:10:49 10° S 21:15:38 43° W 21:20:30 10° NNW visible
30 Apr 5.8 22:16:17 10° WSW 22:18:35 13° W 22:20:55 10° WNW visible
01 May 5.1 21:37:10 10° SSW 21:41:25 27° W 21:45:41 10° NW visible
